Location: Burgwalden
(48.2830°N, 10.7576°E)
Time: 01:14:42
(UTC+00:00)

CZ-2D R/B - Pass Details

Date: 26 September 2023
Orbit: 543 x 624 km, 98.0° (Epoch: 01 December)

Event Time Altitude Azimuth Distance (km) Brightness Sun altitude
Rises 03:53:57 0° 18° (NNE) 2,868 7.4 -13.1°
Reaches altitude 10° 03:56:11 10° 24° (NNE) 1,972 6.7 -12.8°
Maximum altitude 04:00:21 49° 100° (E) 803 4.6 -12.1°
Drops below altitude 10° 04:04:34 10° 175° (S) 1,990 6.1 -11.4°
Sets 04:06:49 0° 181° (S) 2,897 6.9 -11.0°
